Hearne, TX

7:10 PM CST on November 13, 2019 (GMT -0600)
Hearne

Weather History for KLHB - September, 2019

Change the Weather History Date:

Thursday, September 19, 2019

  Actual Average (KCLL) Record (KCLL)
Temperature  
Mean Temperature 82 °F -  
Max Temperature 94 °F 88 °F 101 °F (1956)
Min Temperature 71 °F 66 °F 41 °F (1901)
Cooling Degree Days 17    
Growing Degree Days 32 (Base 50)    
Moisture  
Dew Point 73 °F    
Average Humidity 77    
Maximum Humidity 96    
Minimum Humidity 52    
Precipitation  
Precipitation 0.00 in - - ()
Sea Level Pressure  
Sea Level Pressure 29.87 in    
Wind  
Wind Speed 3 mph ()    
Max Wind Speed 18 mph    
Max Gust Speed 28 mph    
Visibility 9.8 miles    
Events Thunderstorm    
Averages and records for this station are not official NWS values.
T = Trace of Precipitation, MM = Missing Value Source: Averaged Metar Reports

Daily Weather History Graph

Daily Weather History Graph

Search for Another Location

Airport or City:

Astronomy

Sep. 19, 2019 Rise Set
Actual Time 7:12 AM CDT 7:27 PM CDT
Civil Twilight 6:48 AM CDT 7:51 PM CDT
Nautical Twilight 6:20 AM CDT 8:19 PM CDT
Astronomical Twilight 5:52 AM CDT 8:47 PM CDT
Moon 10:57 PM CDT (9/19) 11:58 AM CDT (9/19)
Length of Visible Light 13h 02m
Length of Day
12h 14m
Waning Gibbous, 74% of the Moon is Illuminated
Sep 19
Waning Gibbous
Sep 21
Last Quarter
Sep 28
New
Oct 5
First Quarter
Oct 13
Full

Hourly Weather History & Observations

Time (CDT) Temp. Heat Index Dew Point Humidity Pressure Visibility Wind Dir Wind Speed Gust Speed Precip Events Conditions
12:15 AM 77.2 °F - 73.6 °F 89% 29.89 in 10.0 mi Calm Calm - N/A   Scattered Clouds
12:35 AM 77.0 °F - 73.6 °F 89% 29.89 in 10.0 mi Calm Calm - N/A   Mostly Cloudy
12:55 AM 76.1 °F - 73.4 °F 91% 29.88 in 10.0 mi Calm Calm - N/A   Scattered Clouds
1:15 AM 76.1 °F - 73.6 °F 92% 29.88 in 10.0 mi Calm Calm - N/A   Scattered Clouds
1:35 AM 75.9 °F - 73.4 °F 92% 29.88 in 10.0 mi Calm Calm - N/A   Mostly Cloudy
1:55 AM 75.6 °F - 73.4 °F 93% 29.87 in 10.0 mi Calm Calm - N/A   Mostly Cloudy
2:15 AM 75.4 °F - 73.6 °F 94% 29.88 in 10.0 mi NE 3.5 mph - N/A   Overcast
2:35 AM 76.1 °F - 73.8 °F 92% 29.88 in 10.0 mi Calm Calm - N/A   Overcast
2:55 AM 76.1 °F - 73.4 °F 91% 29.87 in 10.0 mi Calm Calm - N/A   Mostly Cloudy
3:15 AM 76.1 °F - 73.4 °F 91% 29.86 in 10.0 mi Calm Calm - N/A   Scattered Clouds
3:35 AM 74.8 °F - 72.7 °F 93% 29.86 in 10.0 mi Calm Calm - N/A   Clear
4:35 AM 74.3 °F - 72.0 °F 92% 29.85 in 10.0 mi NNW 4.6 mph - N/A   Clear
4:55 AM 73.6 °F - 72.0 °F 95% 29.85 in 10.0 mi Calm Calm - N/A   Clear
5:15 AM 72.9 °F - 71.2 °F 95% 29.85 in 10.0 mi Calm Calm - N/A   Clear
5:35 AM 73.2 °F - 71.4 °F 94% 29.85 in 10.0 mi Calm Calm - N/A   Clear
5:55 AM 72.9 °F - 71.4 °F 95% 29.86 in 10.0 mi Calm Calm - N/A   Clear
6:15 AM 72.7 °F - 71.4 °F 96% 29.87 in 10.0 mi Calm Calm - N/A   Clear
6:35 AM 72.5 °F - 71.1 °F 95% 29.87 in 10.0 mi Calm Calm - N/A   Clear
6:55 AM 72.1 °F - 70.9 °F 96% 29.87 in 10.0 mi Calm Calm - N/A   Scattered Clouds
7:15 AM 71.8 °F - 70.5 °F 96% 29.88 in 10.0 mi Calm Calm - N/A   Scattered Clouds
7:35 AM 71.6 °F - 70.2 °F 95% 29.88 in 10.0 mi Calm Calm - N/A   Clear
7:55 AM 72.9 °F - 71.6 °F 96% 29.87 in 10.0 mi Calm Calm - N/A   Clear
8:15 AM 73.9 °F - 72.3 °F 95% 29.88 in 10.0 mi Calm Calm - N/A   Unknown
8:35 AM 75.7 °F - 72.5 °F 90% 29.88 in 10.0 mi Calm Calm - N/A   Clear
8:55 AM 77.7 °F - 72.3 °F 83% 29.89 in 10.0 mi Calm Calm - N/A   Clear
9:15 AM 80.1 °F 84.0 °F 72.1 °F 77% 29.89 in 10.0 mi NNW 3.5 mph - N/A   Clear
9:35 AM 81.0 °F 85.2 °F 72.0 °F 74% 29.90 in 10.0 mi North 4.6 mph - N/A   Clear
9:55 AM 82.8 °F 87.9 °F 72.1 °F 70% 29.90 in 10.0 mi NNW 5.8 mph - N/A   Clear
10:15 AM 83.1 °F 88.1 °F 71.8 °F 68% 29.90 in 10.0 mi NNW 5.8 mph - N/A   Mostly Cloudy
10:35 AM 83.7 °F 88.9 °F 71.6 °F 67% 29.90 in 10.0 mi NNW 4.6 mph - N/A   Overcast
10:55 AM 85.1 °F 91.1 °F 72.1 °F 65% 29.91 in 10.0 mi NNW 5.8 mph - N/A Thunderstorm Overcast
11:15 AM 84.7 °F 90.4 °F 72.0 °F 65% 29.91 in 10.0 mi Calm Calm - N/A   Overcast
11:35 AM 87.4 °F 94.0 °F 72.1 °F 60% 29.91 in 10.0 mi Calm Calm - N/A   Overcast
11:55 AM 86.4 °F 92.6 °F 72.1 °F 62% 29.91 in 10.0 mi SSW 3.5 mph - N/A   Overcast
12:15 PM 88.2 °F 95.5 °F 72.5 °F 60% 29.90 in 10.0 mi SSE 4.6 mph - N/A   Overcast
12:35 PM 86.9 °F 94.1 °F 73.0 °F 63% 29.89 in 10.0 mi SSE 6.9 mph - N/A   Mostly Cloudy
12:55 PM 89.1 °F 98.0 °F 73.9 °F 61% 29.87 in 10.0 mi South 6.9 mph - N/A   Scattered Clouds
1:15 PM 88.2 °F 96.0 °F 73.0 °F 61% 29.86 in 10.0 mi Calm Calm - N/A   Scattered Clouds
1:35 PM 92.8 °F 102.2 °F 73.6 °F 53% 29.85 in 10.0 mi SSE 5.8 mph - N/A   Scattered Clouds
1:55 PM 89.8 °F 98.1 °F 73.4 °F 58% 29.85 in 10.0 mi SSE 5.8 mph - N/A   Mostly Cloudy
2:15 PM 91.0 °F 99.8 °F 73.6 °F 56% 29.85 in 10.0 mi SSE 8.1 mph - N/A   Mostly Cloudy
2:35 PM 92.5 °F 101.9 °F 73.4 °F 54% 29.85 in 10.0 mi East 4.6 mph - N/A   Scattered Clouds
2:55 PM 91.4 °F 100.1 °F 73.0 °F 55% 29.84 in 10.0 mi SE 8.1 mph - N/A   Scattered Clouds
3:15 PM 92.3 °F 100.3 °F 72.5 °F 52% 29.83 in 10.0 mi Calm Calm - N/A   Mostly Cloudy
3:35 PM 92.5 °F 100.7 °F 72.3 °F 52% 29.81 in 10.0 mi NW 3.5 mph - N/A   Mostly Cloudy
3:55 PM 92.5 °F 101.3 °F 73.2 °F 53% 29.81 in 10.0 mi NE 6.9 mph - N/A   Overcast
4:15 PM 91.9 °F 100.1 °F 72.9 °F 53% 29.81 in 10.0 mi ENE 6.9 mph - N/A   Scattered Clouds
4:35 PM 90.9 °F 98.9 °F 72.7 °F 55% 29.81 in 10.0 mi Calm Calm - N/A   Mostly Cloudy
4:55 PM 93.6 °F 103.8 °F 74.3 °F 53% 29.81 in 10.0 mi ESE 8.1 mph - N/A   Mostly Cloudy
5:15 PM 90.5 °F 103.4 °F 77.0 °F 64% 29.80 in 7.0 mi SSE 15.0 mph 24.2 mph N/A   Mostly Cloudy
5:35 PM 88.0 °F 98.0 °F 75.2 °F 66% 29.81 in 7.0 mi SSE 18.4 mph 27.6 mph N/A   Scattered Clouds
5:55 PM 86.4 °F 94.2 °F 73.6 °F 66% 29.83 in 7.0 mi SSE 17.3 mph 27.6 mph N/A Thunderstorm Clear
6:15 PM 84.2 °F 90.9 °F 73.4 °F 70% 29.85 in 7.0 mi SE 15.0 mph 26.5 mph N/A   Scattered Clouds
6:35 PM 83.7 °F 90.4 °F 73.6 °F 72% 29.85 in 10.0 mi SE 12.7 mph 16.1 mph N/A   Mostly Cloudy
6:55 PM 82.8 °F 88.7 °F 73.4 °F 73% 29.84 in 10.0 mi SSE 11.5 mph 19.6 mph N/A   Scattered Clouds
7:15 PM 81.0 °F 85.8 °F 73.2 °F 77% 29.85 in 10.0 mi SSE 11.5 mph - N/A   Clear
7:35 PM 80.6 °F 85.4 °F 73.6 °F 79% 29.85 in 10.0 mi SE 6.9 mph - N/A   Clear
7:55 PM 79.7 °F - 73.4 °F 81% 29.87 in 10.0 mi SE 9.2 mph - N/A   Clear
8:15 PM 79.0 °F - 73.4 °F 83% 29.86 in 10.0 mi SE 15.0 mph 20.7 mph N/A   Mostly Cloudy
8:35 PM 78.6 °F - 72.5 °F 81% 29.87 in 10.0 mi SE 16.1 mph 21.9 mph N/A   Scattered Clouds
9:15 PM 77.9 °F - 72.5 °F 83% 29.88 in 10.0 mi SE 9.2 mph - N/A   Mostly Cloudy
9:35 PM 77.5 °F - 72.0 °F 83% 29.88 in 10.0 mi SE 11.5 mph - N/A   Mostly Cloudy
9:55 PM 77.0 °F - 71.6 °F 83% 29.90 in 10.0 mi SE 5.8 mph - N/A   Scattered Clouds
10:15 PM 77.0 °F - 71.8 °F 84% 29.90 in 10.0 mi SE 6.9 mph - N/A   Scattered Clouds
10:35 PM 76.6 °F - 72.0 °F 85% 29.91 in 10.0 mi ESE 6.9 mph - N/A   Scattered Clouds
10:55 PM 76.5 °F - 71.8 °F 85% 29.91 in 10.0 mi SE 6.9 mph - N/A   Clear
11:15 PM 76.6 °F - 71.6 °F 84% 29.92 in 10.0 mi ESE 6.9 mph - N/A   Mostly Cloudy
11:35 PM 76.6 °F - 71.6 °F 84% 29.92 in 10.0 mi ESE 6.9 mph - N/A   Overcast
11:55 PM 77.0 °F - 71.6 °F 83% 29.93 in 10.0 mi SE 8.1 mph - N/A   Overcast